sat.trackr.live / text

‹ back to catalog

STARLINK-32815

NORAD 62956 · 2025-029J

PAYLOAD ACTIVE UNKNOWN

§ Identity

Operator
Country
US
Launch date
2025-02-11
Launch site
AFWTR
Launch vehicle
Mass (kg)
RCS (m²)

Purposes: comms

External: N2YO · Heavens-Above · Gunter

§ Orbital elements

Epoch: 2026-05-25T00:00:02.000160Z

Period
93.90 min
Inclination
53.1598°
Eccentricity
0.0001178
Mean motion
15.33543394 rev/d
Perigee alt
464.4 km
Apogee alt
466.1 km
Semi-major
6,843.4 km
B*
2.1743e-4
RAAN
235.6196°
Arg perigee
92.2510°
Mean anomaly
303.9494°
Rev number
582

§ Raw data

STARLINK-328151 62956U 25029J   26145.00002315  .00006783  00000+0  21743-3 0  99982 62956  53.1598 235.6196 0001178  92.2510 303.9494 15.33543394  5826

JSON: /api/v1/satellites/62956 · /tle

For live sub-satellite position, see the globe view (requires WebGL).

§ Visibility from observer

Set your observer location to see the next 7 days of passes ≥ 10°. The values pass through the URL so the page stays shareable.

No JS? Fill the form by hand. The geolocation button needs JavaScript.